Location: Rounton
(54.4000°N, 1.3500°W)
Time: 13:40:27
(UTC+00:00)

Vanguard 2 - Pass Details

Date: 02 December 2021
Orbit: 553 x 2936 km, 32.9° (Epoch: 23 January)

Event Time Altitude Azimuth Distance (km) Brightness Sun altitude
Rises 15:33:03 0° 224° (SW) 3,450 14.0 0.5°
Reaches altitude 10° 15:36:41 10° 199° (SSW) 2,872 11.6 0.1°
Maximum altitude 15:40:07 14° 169° (S) 2,925 10.9 -0.3°
Drops below altitude 10° 15:44:19 10° 141° (SE) 3,668 11.0 -0.8°
Sets 15:50:15 0° 121° (ESE) 5,247 11.6 -1.5°
